Indianapolis, IN

3:14 PM EST on November 21, 2019 (GMT -0500)
Indianapolis Terry

Weather History for KTYQ - June, 2019

Change the Weather History Date:

Sunday, June 9, 2019

  Actual Average (KEYE) Record (KEYE)
Temperature  
Mean Temperature 68 °F -  
Max Temperature 71 °F 75 °F 90 °F (2018)
Min Temperature 64 °F 59 °F 54 °F (2016)
Cooling Degree Days 2    
Growing Degree Days 18 (Base 50)    
Moisture  
Dew Point 67 °F    
Average Humidity 98    
Maximum Humidity 100    
Minimum Humidity 84    
Precipitation  
Precipitation 0.28 in - - ()
Sea Level Pressure  
Sea Level Pressure 29.93 in    
Wind  
Wind Speed 7 mph ()    
Max Wind Speed 13 mph    
Max Gust Speed 18 mph    
Visibility 7.3 miles    
Events Rain    
Averages and records for this station are not official NWS values.
T = Trace of Precipitation, MM = Missing Value Source: Averaged Metar Reports

Daily Weather History Graph

Daily Weather History Graph

Search for Another Location

Airport or City:

Astronomy

Jun. 09, 2019 Rise Set
Actual Time 6:15 AM EDT 9:12 PM EDT
Civil Twilight 5:43 AM EDT 9:45 PM EDT
Nautical Twilight 5:02 AM EDT 10:26 PM EDT
Astronomical Twilight 4:14 AM EDT 11:14 PM EDT
Moon 12:53 PM EDT (6/9) 1:52 AM EDT (6/9)
Length of Visible Light 16h 02m
Length of Day
14h 56m
Waxing Crescent, 43% of the Moon is Illuminated
Jun 9
Waxing Crescent
Jun 10
First Quarter
Jun 17
Full
Jun 25
Last Quarter
Jul 2
New

Hourly Weather History & Observations

Time (EDT) Temp. Dew Point Humidity Pressure Visibility Wind Dir Wind Speed Gust Speed Precip Events Conditions
12:15 AM 69.3 °F 64.4 °F 84% 29.93 in 10.0 mi East 9.2 mph - N/A   Overcast
12:35 AM 68.9 °F 64.4 °F 86% 29.94 in 10.0 mi East 6.9 mph - N/A   Overcast
12:55 AM 68.9 °F 64.4 °F 86% 29.94 in 10.0 mi East 8.1 mph - N/A   Overcast
1:15 AM 68.9 °F 64.2 °F 85% 29.93 in 10.0 mi East 12.7 mph - N/A   Overcast
1:35 AM 68.7 °F 64.4 °F 86% 29.93 in 10.0 mi East 9.2 mph - N/A   Overcast
1:55 AM 68.9 °F 64.2 °F 85% 29.93 in 10.0 mi East 9.2 mph - N/A   Mostly Cloudy
2:15 AM 68.9 °F 64.0 °F 84% 29.92 in 10.0 mi ESE 11.5 mph 18.4 mph N/A   Mostly Cloudy
2:35 AM 68.9 °F 64.4 °F 86% 29.92 in 10.0 mi East 11.5 mph - N/A   Overcast
2:55 AM 68.0 °F 64.6 °F 89% 29.92 in 10.0 mi ESE 8.1 mph 11.5 mph N/A   Overcast
3:15 AM 66.7 °F 65.8 °F 97% 29.92 in 10.0 mi ESE 8.1 mph - N/A Rain Rain
3:35 AM 65.8 °F 65.8 °F 100% 29.92 in 10.0 mi ESE 8.1 mph - N/A Rain Rain
3:55 AM 64.9 °F 64.9 °F 100% 29.92 in 10.0 mi East 6.9 mph - 0.01 in Rain Rain
4:15 AM 64.6 °F 64.6 °F 100% 29.91 in 7.0 mi East 5.8 mph - 0.01 in Rain Rain
4:35 AM 64.6 °F 64.6 °F 100% 29.91 in 10.0 mi East 6.9 mph - 0.01 in   Drizzle
4:55 AM 64.6 °F 64.6 °F 100% 29.91 in 7.0 mi East 6.9 mph - 0.01 in   Drizzle
5:15 AM 64.6 °F 64.6 °F 100% 29.91 in 7.0 mi East 8.1 mph - N/A Rain Rain
5:35 AM 64.4 °F 64.4 °F 100% 29.91 in 7.0 mi East 6.9 mph - 0.01 in Rain Rain
5:55 AM 64.4 °F 64.4 °F 100% 29.92 in 5.0 mi East 5.8 mph - 0.04 in Rain Rain
6:15 AM 64.4 °F 64.4 °F 100% 29.92 in 7.0 mi East 5.8 mph - 0.02 in Rain Rain
6:35 AM 64.4 °F 64.4 °F 100% 29.93 in 7.0 mi East 6.9 mph - 0.03 in Rain Rain
6:55 AM 64.4 °F 64.4 °F 100% 29.93 in 5.0 mi East 6.9 mph - 0.04 in Rain Light Rain
7:15 AM 64.6 °F 64.6 °F 100% 29.93 in 5.0 mi East 8.1 mph - 0.01 in Rain Light Rain
7:35 AM 64.6 °F 64.6 °F 100% 29.94 in 5.0 mi East 8.1 mph - 0.02 in Rain Light Rain
7:55 AM 64.8 °F 64.8 °F 100% 29.94 in 7.0 mi East 8.1 mph - 0.03 in Rain Light Rain
8:15 AM 64.9 °F 64.9 °F 100% 29.94 in 7.0 mi ESE 6.9 mph - N/A Rain Rain
8:35 AM 65.1 °F 65.1 °F 100% 29.95 in 4.0 mi East 8.1 mph - 0.03 in Rain Rain
8:55 AM 65.3 °F 65.3 °F 100% 29.95 in 3.0 mi ESE 8.1 mph - 0.09 in Rain Heavy Rain
9:15 AM 65.3 °F 65.3 °F 100% 29.95 in 4.0 mi ESE 9.2 mph - 0.02 in Rain Light Rain
9:35 AM 65.5 °F 65.5 °F 100% 29.95 in 7.0 mi East 5.8 mph - 0.02 in   Light Drizzle
9:55 AM 65.7 °F 65.7 °F 100% 29.96 in 10.0 mi ESE 9.2 mph - 0.02 in   Overcast
10:15 AM 66.2 °F 66.2 °F 100% 29.95 in 10.0 mi ESE 6.9 mph - N/A   Overcast
10:35 AM 66.2 °F 66.2 °F 100% 29.95 in 4.0 mi ESE 10.4 mph - N/A   Overcast
10:55 AM 66.4 °F 66.4 °F 100% 29.95 in 5.0 mi ESE 9.2 mph - 0.01 in   Light Drizzle
11:15 AM 66.6 °F 66.6 °F 100% 29.95 in 10.0 mi ESE 10.4 mph - N/A   Overcast
11:35 AM 66.6 °F 66.6 °F 100% 29.95 in 5.0 mi ESE 8.1 mph - N/A   Light Drizzle
11:55 AM 67.1 °F 67.1 °F 100% 29.95 in 7.0 mi ESE 9.2 mph - 0.02 in Rain Rain
12:15 PM 67.1 °F 67.1 °F 100% 29.95 in 7.0 mi ESE 9.2 mph - N/A Rain Light Rain
12:35 PM 68.2 °F 68.2 °F 100% 29.95 in 5.0 mi ESE 9.2 mph - N/A   Overcast
12:55 PM 68.5 °F 68.5 °F 100% 29.95 in 7.0 mi ESE 8.1 mph - N/A   Overcast
1:15 PM 69.4 °F 69.4 °F 100% 29.94 in 10.0 mi ESE 8.1 mph - N/A   Overcast
1:35 PM 69.8 °F 69.8 °F 100% 29.94 in 10.0 mi SE 8.1 mph - N/A   Overcast
1:55 PM 70.0 °F 70.0 °F 100% 29.94 in 10.0 mi SE 5.8 mph - N/A   Overcast
2:15 PM 70.0 °F 70.0 °F 100% 29.94 in 10.0 mi ESE 4.6 mph - N/A   Overcast
2:35 PM 70.5 °F 70.5 °F 100% 29.94 in 10.0 mi SE 4.6 mph - N/A   Overcast
2:55 PM 70.7 °F 70.7 °F 100% 29.93 in 5.0 mi SE 5.8 mph - N/A Rain Light Rain
3:15 PM 71.2 °F 71.2 °F 100% 29.93 in 10.0 mi SE 6.9 mph - N/A   Overcast
3:35 PM 71.6 °F 71.2 °F 99% 29.93 in 10.0 mi SE 6.9 mph - N/A   Overcast
3:55 PM 71.2 °F 71.2 °F 100% 29.93 in 10.0 mi ESE 8.1 mph - N/A   Light Drizzle
4:15 PM 71.6 °F 71.6 °F 100% 29.93 in 10.0 mi ESE 4.6 mph - N/A   Overcast
4:35 PM 71.2 °F 71.2 °F 100% 29.93 in 7.0 mi SE 4.6 mph - N/A   Drizzle
4:55 PM 70.7 °F 70.7 °F 100% 29.93 in 7.0 mi SE 4.6 mph - N/A   Drizzle
5:15 PM 71.2 °F 71.2 °F 100% 29.93 in 10.0 mi Calm Calm - N/A   Overcast
5:35 PM 71.8 °F 71.8 °F 100% 29.93 in 10.0 mi SE 6.9 mph - N/A   Overcast
5:55 PM 71.6 °F 71.6 °F 100% 29.93 in 10.0 mi East 6.9 mph - N/A   Overcast
6:15 PM 71.1 °F 71.1 °F 100% 29.93 in 7.0 mi East 6.9 mph - N/A Rain Light Rain
6:35 PM 69.8 °F 69.8 °F 100% 29.94 in 10.0 mi East 3.5 mph - N/A   Light Drizzle
6:55 PM 70.0 °F 70.0 °F 100% 29.93 in 7.0 mi Calm Calm - N/A   Overcast
7:15 PM 69.8 °F 69.8 °F 100% 29.93 in 4.0 mi ESE 3.5 mph - 0.01 in Rain Rain
7:35 PM 70.0 °F 70.0 °F 100% 29.93 in 5.0 mi ESE 3.5 mph - 0.01 in Rain Light Rain
7:55 PM 70.0 °F 70.0 °F 100% 29.93 in 7.0 mi ESE 4.6 mph - 0.01 in   Scattered Clouds
8:15 PM 70.2 °F 70.2 °F 100% 29.94 in 7.0 mi East 3.5 mph - N/A   Mostly Cloudy
8:35 PM 69.8 °F 69.8 °F 100% 29.94 in 7.0 mi Calm Calm - N/A Rain Rain
8:55 PM 69.8 °F 69.8 °F 100% 29.94 in 7.0 mi Calm Calm - N/A   Overcast
9:15 PM 69.8 °F 69.8 °F 100% 29.94 in 7.0 mi Calm Calm - N/A   Overcast
9:35 PM 69.4 °F 69.4 °F 100% 29.94 in 5.0 mi Calm Calm - N/A   Mostly Cloudy
9:55 PM 69.1 °F 69.1 °F 100% 29.94 in 4.0 mi Calm Calm - N/A   Scattered Clouds
10:15 PM 68.4 °F 68.4 °F 100% 29.94 in 3.0 mi East 3.5 mph - N/A   Scattered Clouds
10:35 PM 68.0 °F 68.0 °F 100% 29.94 in 2.5 mi Calm Calm - N/A   Scattered Clouds
10:55 PM 67.8 °F 67.8 °F 100% 29.94 in 2.0 mi Calm Calm - N/A   Scattered Clouds
11:15 PM 68.0 °F 68.0 °F 100% 29.94 in 2.5 mi Calm Calm - N/A   Scattered Clouds
11:35 PM 68.4 °F 68.4 °F 100% 29.94 in 3.0 mi NNW 3.5 mph - N/A   Overcast
11:55 PM 68.4 °F 68.4 °F 100% 29.94 in 3.0 mi Calm Calm - N/A   Overcast